Flag for U.S.A. Weather past 2 weeks in Costa Mesa, California, U.S.A.

Now
62 °F

Low clouds.


Feels Like: 62 °F
Forecast: 61 / 78 °F
Wind: No wind

Location: John Wayne Airport-Orange County Airport

Current Time: May 30, 2015 at 4:22:03 AM

Latest Report: May 30, 2015 at 3:53 AM


Visibility: 8 mi

Pressure: 29.90 "Hg

Humidity: 83%

Dew point: 57 °F

Location of Costa MesaLocation

Historic Weather in Costa Mesa — Graph

°F

Costa Mesa temperature yesterday

Maximum temperature yesterday: 72 °F (at 11:53 AM)
Minimum temperature yesterday: 61 °F (at 12:53 AM)
Average temperature yesterday: 65 °F

Past Weeks' High & Low Weather Summary

 TemperatureHumidityPressure
High72 °F (May 29, 11:53 AM)87% (May 15, 9:53 AM)30.09 "Hg (May 15, 9:53 AM)
Low56 °F (May 15, 2:53 AM)44% (May 21, 12:53 PM)29.83 "Hg (May 15, 3:53 PM)
Average63 °F69%29.98 "Hg
* Reported May 15 2:53 AM — May 30 2:53 AM, Costa Mesa, Weather by CustomWeather, © 2015

Note: Actual official high and low records may vary slightly from our data, if they occured in-between our weather recording intervals... More about our weather records

Advertising

Costa Mesa weather history for previous 24 hours

 ConditionsComfort  
Time TempWeatherWind HumidityBarometerVisibility
2:53 AM
Sat, May 30
62 °FLow clouds.No wind83%29.91 "Hg8 mi
1:53 AM62 °FLow clouds.5 mph83%29.91 "Hg9 mi
12:53 AM62 °FLow clouds.3 mph83%29.93 "Hg10 mi
11:53 PM
Fri, May 29
61 °FPassing clouds.5 mph87%29.93 "Hg9 mi
10:53 PM62 °FPassing clouds.6 mph83%29.93 "Hg9 mi
9:53 PM62 °FPassing clouds.5 mph83%29.92 "Hg10 mi
8:53 PM63 °FPartly sunny.3 mph81%29.91 "Hg10 mi
7:53 PM64 °FBroken clouds.7 mph78%29.91 "Hg10 mi
6:53 PM66 °FPartly sunny.7 mph73%29.89 "Hg10 mi
5:53 PM69 °FPartly sunny.12 mph63%29.88 "Hg10 mi
4:53 PM70 °FPartly sunny.10 mph61%29.89 "Hg10 mi
3:53 PM72 °FPartly sunny.9 mph57%29.90 "Hg10 mi
2:53 PM71 °FPartly sunny.9 mph59%29.92 "Hg10 mi
1:53 PM71 °FPartly sunny.7 mph59%29.93 "Hg10 mi
12:53 PM72 °FPartly sunny.8 mph57%29.93 "Hg10 mi
11:53 AM72 °FPartly sunny.9 mph57%29.94 "Hg10 mi
10:53 AM68 °FPartly sunny.No wind63%29.95 "Hg9 mi
9:53 AM65 °FPartly sunny.3 mph70%29.96 "Hg9 mi
8:53 AM63 °FMostly cloudy.5 mph75%29.97 "Hg9 mi
7:53 AM62 °FFog.No wind78%29.96 "Hg6 mi
6:53 AM62 °FFog.No wind78%29.95 "Hg6 mi
5:53 AM61 °FFog.No wind81%29.94 "Hg6 mi
4:53 AM61 °FLow clouds.No wind81%29.94 "Hg10 mi
Weather by CustomWeather, © 2015

See weather overviewHow to use our weather pages